DW7787 Weather Reports


time (UTC)temp
F
wind
direction
speed
knots
gust
knots
rain 1hr
in
rain 24hr
in
rain mn
in
humidity
%
barometer
mb
20260906092941 71 309 0.0 0.0 0.00 0.01 0.00 93 1012.6
20260906092437 71 309 0.0 0.9 0.00 0.01 0.00 93 1012.5
20260906091937 71 309 0.0 0.9 0.00 0.01 0.00 93 1012.5
20260906091435 71 309 0.0 0.9 0.00 0.01 0.00 93 1012.5
20260906090936 71 309 0.0 0.0 0.00 0.01 0.00 92 1012.6
20260906090435 71 309 0.0 0.9 0.00 0.01 0.00 92 1012.5
20260906090027 72 309 0.0 0.0 0.00 0.01 0.00 92 1012.4
20260906090005 71 309 0.0 0.9 0.00 0.01 0.00 92 1012.5
20260906084931 72 309 0.0 0.0 0.00 0.01 0.00 92 1012.4
20260906084430 72 309 0.0 0.0 0.00 0.01 0.00 92 1012.4
20260906083929 72 309 0.0 0.0 0.00 0.01 0.00 92 1012.5
20260906083431 72 309 0.0 0.0 0.00 0.01 0.00 92 1012.5
20260906082932 72 309 0.0 0.9 0.00 0.01 0.00 92 1012.4
20260906082426 72 309 0.0 0.9 0.00 0.01 0.00 92 1012.4
20260906081923 72 309 0.0 0.9 0.00 0.01 0.00 92 1012.4
20260906081420 72 309 0.0 0.9 0.00 0.01 0.00 92 1012.2
20260906080917 72 309 0.0 0.0 0.00 0.01 0.00 92 1012.1
20260906080710 72 309 0.0 0.9 0.00 0.01 0.00 92 1012.1
20260906075914 72 309 0.0 0.9 0.00 0.01 0.00 91 1011.9
20260906075415 72 309 0.0 0.0 0.00 0.01 0.00 91 1011.9
20260906075211 73 309 0.0 0.0 0.00 0.01 0.00 91 1011.8
20260906074706 73 309 0.0 0.0 0.00 0.01 0.00 91 1011.8
20260906073909 73 309 0.0 0.0 0.00 0.01 0.00 91 1011.7
20260906073410 73 309 0.0 0.0 0.00 0.01 0.00 91 1011.7
20260906072908 73 309 0.0 0.0 0.00 0.01 0.00 91 1011.7
20260906072406 73 309 0.0 0.0 0.00 0.01 0.00 91 1011.7
20260906071904 73 309 0.0 0.0 0.00 0.01 0.00 91 1011.9
20260906071404 73 309 0.0 0.9 0.00 0.01 0.00 91 1011.9
20260906070904 73 309 0.0 1.7 0.00 0.01 0.00 91 1011.9
20260906070708 73 292 0.0 1.7 0.00 0.01 0.00 91 1012.1
20260906065905 73 248 0.0 0.9 0.00 0.01 0.00 91 1012.2
20260906065401 73 273 0.0 0.9 0.00 0.01 0.00 90 1012.4
20260906064901 73 273 0.0 1.7 0.00 0.01 0.00 90 1012.2
20260906064407 73 273 0.0 1.7 0.00 0.01 0.00 90 1012.2
20260906063903 73 315 0.0 0.9 0.00 0.01 0.00 90 1012.1
20260906063357 73 314 0.0 0.9 0.00 0.01 0.00 89 1012.2
20260906062852 73 309 0.0 0.9 0.00 0.01 0.00 89 1012.3
20260906062346 73 309 0.0 0.0 0.00 0.01 0.00 89 1012.5
20260906061845 73 309 0.0 0.0 0.00 0.01 0.00 89 1012.6
20260906061342 73 309 0.0 0.0 0.00 0.01 0.00 89 1012.6
20260906060843 74 309 0.0 0.0 0.00 0.01 0.00 89 1012.7
20260906060339 74 309 0.0 0.0 0.00 0.01 0.00 89 1012.6
20260906055841 74 309 0.0 0.9 0.00 0.01 0.00 89 1012.6
20260906055341 74 309 0.0 0.9 0.00 0.01 0.00 89 1012.7
20260906054839 74 309 0.0 0.9 0.00 0.01 0.00 89 1012.7
20260906054631 74 309 0.0 0.9 0.00 0.01 0.00 89 1012.8
20260906054127 74 309 0.0 0.9 0.00 0.01 0.00 89 1012.8
20260906053727 74 309 0.0 0.9 0.00 0.01 0.00 88 1013.0
20260906053723 74 309 0.0 0.9 0.00 0.01 0.00 88 1012.9
20260906052341 74 309 0.0 0.9 0.00 0.01 0.00 88 1013.0
20260906051838 74 271 0.0 0.9 0.00 0.01 0.00 88 1013.0
20260906051339 74 265 0.0 0.9 0.00 0.01 0.00 88 1013.0
20260906050837 74 262 0.0 1.7 0.00 0.01 0.00 88 1013.1
20260906050622 74 262 0.0 1.7 0.00 0.01 0.00 87 1013.1
20260906045837 74 255 0.0 1.7 0.00 0.01 0.00 87 1013.2
20260906045337 74 296 0.0 1.7 0.00 0.01 0.00 87 1013.3
20260906045125 74 355 0.0 0.9 0.00 0.01 0.00 87 1013.3
20260906044337 74 355 0.0 0.0 0.00 0.01 0.00 87 1013.3
20260906043832 74 355 0.0 0.9 0.00 0.01 0.00 87 1013.4
20260906043332 74 355 0.0 0.9 0.00 0.01 0.00 87 1013.5
20260906042829 74 355 0.0 0.9 0.00 0.01 0.00 86 1013.5
20260906042329 74 355 0.0 0.9 0.00 0.01 0.00 86 1013.3
20260906041831 74 355 0.0 0.9 0.00 0.01 0.00 86 1013.4
20260906041330 74 355 0.0 0.9 0.00 0.01 0.00 86 1013.5
20260906040830 74 355 0.0 0.9 0.00 0.01 0.00 85 1013.6
20260906040329 74 355 0.0 0.9 0.00 0.01 0.00 85 1013.6
20260906035831 74 355 0.0 0.9 0.00 0.01 0.01 85 1013.5
20260906035331 74 355 0.0 0.9 0.00 0.01 0.01 85 1013.5
20260906034825 74 355 0.0 0.9 0.00 0.01 0.01 85 1013.5
20260906034318 74 355 0.0 0.9 0.00 0.01 0.01 84 1013.6
20260906033813 74 355 0.0 0.9 0.00 0.01 0.01 84 1013.7
20260906033559 74 355 0.0 0.9 0.00 0.01 0.01 84 1013.7
20260906032816 74 355 0.0 0.9 0.00 0.01 0.01 84 1013.6
20260906032313 74 355 0.0 0.9 0.00 0.01 0.01 84 1013.5
20260906031813 74 355 0.0 0.9 0.00 0.01 0.01 84 1013.5
20260906031313 75 355 0.0 0.9 0.00 0.01 0.01 84 1013.6
20260906030810 75 355 0.0 0.0 0.00 0.01 0.01 84 1013.7
20260906030309 75 355 0.0 0.9 0.00 0.01 0.01 84 1013.6
20260906025810 75 355 0.0 0.9 0.00 0.01 0.01 84 1013.6
20260906025307 75 355 0.0 0.9 0.00 0.01 0.01 83 1013.5
20260906024808 75 355 0.0 0.9 0.00 0.01 0.01 83 1013.6
20260906024358 75 355 0.0 0.9 0.00 0.01 0.01 83 1013.4
20260906024344 75 355 0.0 0.0 0.00 0.01 0.01 83 1013.6
20260906023312 75 355 0.0 0.9 0.00 0.01 0.01 83 1013.4
20260906022806 75 355 0.0 0.9 0.00 0.01 0.01 83 1013.5
20260906022348 75 355 0.9 1.7 0.00 0.01 0.01 83 1013.4
20260906022337 75 355 0.0 1.7 0.00 0.01 0.01 83 1013.5
20260906021550 76 355 0.0 1.7 0.00 0.01 0.01 81 1013.3
20260906021057 76 355 0.0 0.9 0.00 0.01 0.01 80 1013.3
20260906020258 76 355 0.0 0.9 0.00 0.01 0.01 80 1013.2
20260906015755 76 355 0.0 1.7 0.00 0.01 0.01 80 1013.1
20260906015255 76 355 0.0 1.7 0.00 0.01 0.01 81 1013.1
20260906014754 77 355 0.0 0.9 0.00 0.01 0.01 81 1013.1
20260906014546 77 355 0.0 0.9 0.00 0.01 0.01 81 1013.3
20260906014043 77 355 0.0 0.0 0.00 0.01 0.01 81 1013.1
20260906013251 77 355 0.0 0.9 0.00 0.01 0.01 81 1013.1
20260906013038 77 355 0.0 0.9 0.00 0.01 0.01 80 1013.0
20260906012249 78 355 0.0 0.9 0.00 0.01 0.01 80 1012.8
20260906011750 78 355 0.0 0.9 0.00 0.01 0.01 79 1012.8
20260906011251 78 355 0.0 0.0 0.00 0.01 0.01 78 1012.7
20260906010751 78 355 0.0 0.0 0.00 0.01 0.01 78 1012.7
20260906010251 78 355 0.0 0.0 0.00 0.01 0.01 78 1012.7
20260906005748 79 355 0.0 0.0 0.00 0.01 0.01 77 1012.6
20260906005249 79 355 0.0 0.9 0.00 0.01 0.01 76 1012.7
20260906004747 79 355 0.0 0.9 0.00 0.01 0.01 76 1012.7
20260906004546 79 355 0.0 0.9 0.00 0.01 0.01 75 1012.7
20260906004043 80 355 0.0 0.9 0.00 0.01 0.01 75 1012.6
20260906003246 80 355 0.0 0.9 0.00 0.01 0.01 74 1012.6
20260906002747 80 355 0.0 0.9 0.00 0.01 0.01 74 1012.7
20260906002339 81 355 0.0 0.9 0.00 0.01 0.01 72 1012.6
20260906002325 81 355 0.0 0.9 0.00 0.01 0.01 73 1012.7
20260906001341 82 355 0.0 0.0 0.00 0.01 0.01 71 1012.5
20260906001327 81 355 0.0 0.0 0.00 0.01 0.01 72 1012.6
20260906000245 82 355 0.0 0.0 0.00 0.01 0.01 70 1012.5
20260905235747 82 355 0.0 0.9 0.00 0.01 0.01 70 1012.4
20260905235246 82 355 0.0 0.9 0.00 0.01 0.01 69 1012.4
20260905234745 83 355 0.0 0.9 0.00 0.01 0.01 69 1012.2
20260905234245 83 355 0.0 0.0 0.00 0.01 0.01 68 1012.2
20260905234046 83 355 0.0 1.7 0.00 0.01 0.01 68 1012.2
20260905233245 83 355 0.0 1.7 0.00 0.01 0.01 68 1012.0
20260905232746 83 273 0.0 1.7 0.00 0.01 0.01 67 1012.1
20260905232246 84 5 0.0 1.7 0.00 0.01 0.01 66 1012.1
20260905231747 84 5 0.0 1.7 0.00 0.01 0.01 65 1012.1
20260905231245 84 5 0.0 1.7 0.00 0.01 0.01 65 1012.0
20260905230745 84 5 0.9 1.7 0.00 0.01 0.01 64 1012.0
20260905230246 84 215 0.9 1.7 0.00 0.01 0.01 64 1012.0
20260905225747 85 311 0.9 4.3 0.00 0.01 0.01 64 1012.0
20260905225245 85 209 0.9 4.3 0.00 0.01 0.01 64 1012.0
20260905224746 85 296 0.9 3.5 0.00 0.01 0.01 63 1012.1
20260905224245 85 232 0.9 3.5 0.00 0.01 0.01 64 1012.0
20260905223743 84 340 0.9 2.6 0.00 0.01 0.01 65 1011.9
20260905223242 84 14 0.9 2.6 0.00 0.01 0.01 65 1011.9
20260905222742 84 201 0.9 6.1 0.00 0.01 0.01 65 1011.8
20260905222547 83 211 0.9 6.1 0.00 0.01 0.01 66 1011.7
20260905222034 83 246 0.9 7.0 0.00 0.01 0.01 67 1011.7
20260905221239 82 224 0.9 7.0 0.00 0.01 0.01 67 1011.9
20260905220736 82 271 0.9 5.2 0.00 0.01 0.01 69 1011.9
20260905220236 82 271 0.9 2.6 0.00 0.01 0.01 70 1012.0
20260905215733 82 189 0.9 2.6 0.00 0.01 0.01 70 1012.0
20260905215232 81 317 0.9 6.1 0.00 0.01 0.01 71 1012.1
20260905214731 81 338 0.9 6.1 0.00 0.01 0.01 72 1012.1
20260905214230 81 241 0.9 3.5 0.00 0.01 0.01 74 1012.3
20260905213731 80 275 0.9 5.2 0.00 0.01 0.01 75 1012.4
20260905213229 80 244 0.9 5.2 0.00 0.01 0.01 76 1012.6
20260905212728 80 281 0.9 3.5 0.00 0.01 0.01 76 1012.7
20260905212529 80 183 0.9 3.5 0.00 0.01 0.01 77 1012.9
20260905211727 79 355 0.9 3.5 0.00 0.01 0.01 78 1012.8
20260905211227 79 288 0.9 3.5 0.00 0.01 0.01 79 1012.9
20260905210725 79 255 0.9 2.6 0.00 0.01 0.01 79 1013.0
20260905210227 79 340 0.9 3.5 0.00 0.01 0.01 80 1012.9
20260905205723 78 252 0.9 3.5 0.00 0.01 0.01 80 1012.9
20260905205223 78 0 0.0 1.7 0.00 0.01 0.01 80 1012.7
20260905204716 78 327 0.9 2.6 0.00 0.01 0.01 79 1012.9
20260905204210 78 279 0.9 2.6 0.00 0.01 0.01 78 1012.8
20260905203706 78 253 0.9 2.6 0.00 0.01 0.01 77 1012.7
20260905203205 78 327 1.7 6.1 0.00 0.01 0.01 77 1012.6
20260905202705 78 259 0.9 6.1 0.00 0.01 0.01 77 1012.8
20260905202206 78 230 0.9 1.7 0.00 0.01 0.01 77 1012.7
20260905201705 78 49 0.9 3.5 0.00 0.01 0.01 78 1012.8
20260905201205 78 279 0.9 3.5 0.00 0.01 0.01 78 1012.9
20260905201000 78 269 0.0 3.5 0.00 0.01 0.01 78 1012.9
20260905200205 78 323 0.0 1.7 0.00 0.01 0.01 78 1013.0
20260905195705 78 329 0.0 1.7 0.00 0.01 0.01 78 1013.0
20260905195503 78 220 0.0 1.7 0.00 0.01 0.01 79 1012.9
20260905194701 78 5 0.0 1.7 0.01 0.01 0.01 80 1012.9
20260905194203 78 227 0.9 1.7 0.01 0.01 0.01 80 1012.9
20260905193700 78 319 0.9 1.7 0.01 0.01 0.01 79 1013.0
20260905193201 78 32 0.9 1.7 0.01 0.01 0.01 77 1012.9
20260905192702 79 13 0.0 1.7 0.01 0.01 0.01 76 1013.1
20260905192202 79 223 0.0 1.7 0.01 0.01 0.01 76 1013.0
20260905191703 79 223 0.9 3.5 0.01 0.01 0.01 75 1012.6
20260905191202 80 74 0.9 3.5 0.01 0.01 0.01 73 1012.6
20260905190658 81 92 1.7 5.2 0.01 0.01 0.01 73 1012.4
20260905190448 82 56 2.6 7.0 0.01 0.01 0.01 70 1012.7
20260905185645 84 65 2.6 7.0 0.01 0.01 0.01 65 1012.8
20260905185140 87 65 2.6 13.0 0.00 0.00 0.00 57 1012.5
20260905184636 89 117 3.5 13.0 0.00 0.00 0.00 51 1013.3
20260905184135 92 31 4.3 14.8 0.00 0.00 0.00 47 1013.5
20260905183635 95 239 4.3 14.8 0.00 0.00 0.00 43 1013.7
20260905183245 98 32 1.7 7.0 0.00 0.00 0.00 46 1012.6
20260905183221 98 280 2.6 8.7 0.00 0.00 0.00 46 1013.3
20260905182135 98 88 1.7 7.0 0.00 0.00 0.00 47 1012.4
20260905181636 98 325 1.7 7.8 0.00 0.00 0.00 47 1012.4
20260905181435 97 256 1.7 7.8 0.00 0.00 0.00 47 1012.6
20260905180634 98 168 1.7 4.3 0.00 0.00 0.00 47 1012.7
20260905180134 98 59 1.7 7.8 0.00 0.00 0.00 47 1012.8
20260905175633 98 97 1.7 7.8 0.00 0.00 0.00 46 1013.1
20260905175427 97 355 0.9 7.0 0.00 0.00 0.00 48 1013.1
20260905174631 97 54 1.7 8.7 0.00 0.00 0.00 47 1013.3
20260905174130 97 157 1.7 8.7 0.00 0.00 0.00 48 1013.3
20260905173633 97 350 1.7 4.3 0.00 0.00 0.00 48 1013.5
20260905173133 97 97 1.7 6.1 0.00 0.00 0.00 48 1013.4
20260905172632 97 67 1.7 6.1 0.00 0.00 0.00 47 1013.6
20260905172133 97 325 1.7 8.7 0.00 0.00 0.00 47 1013.8
20260905171631 97 318 2.6 8.7 0.00 0.00 0.00 47 1013.8
20260905171128 97 233 1.7 7.0 0.00 0.00 0.00 47 1014.0
20260905170629 96 247 1.7 6.1 0.00 0.00 0.00 46 1013.9
20260905170129 96 217 1.7 4.3 0.00 0.00 0.00 48 1014.0
20260905165630 96 90 1.7 5.2 0.00 0.00 0.00 49 1014.0
20260905165128 95 317 1.7 7.0 0.00 0.00 0.00 49 1014.0
20260905164629 95 201 1.7 7.0 0.00 0.00 0.00 49 1014.3
20260905164129 94 13 1.7 6.1 0.00 0.00 0.00 51 1014.4
20260905163629 94 22 1.7 6.1 0.00 0.00 0.00 51 1014.5
20260905163130 94 266 0.9 6.1 0.00 0.00 0.00 51 1014.6
20260905162634 93 223 0.9 4.3 0.00 0.00 0.00 52 1014.7
20260905162423 92 210 0.9 4.3 0.00 0.00 0.00 54 1014.7
20260905161921 92 15 0.9 4.3 0.00 0.00 0.00 56 1014.7
20260905161220 91 240 0.9 3.5 0.00 0.00 0.00 59 1014.7
20260905161204 92 346 0.9 4.3 0.00 0.00 0.00 58 1014.8
20260905160131 91 94 0.9 3.5 0.00 0.00 0.00 61 1014.7
20260905155628 90 198 1.7 3.5 0.00 0.00 0.00 60 1014.7
20260905155127 90 201 0.9 3.5 0.00 0.00 0.00 62 1014.8
20260905154628 90 51 0.9 3.5 0.00 0.00 0.00 65 1014.8
20260905154127 89 346 0.9 3.5 0.00 0.00 0.00 65 1014.9
20260905153627 89 67 0.9 2.6 0.00 0.00 0.00 69 1014.8
20260905153420 88 224 0.9 2.6 0.00 0.00 0.00 70 1014.8
20260905152628 88 326 0.9 3.5 0.00 0.00 0.00 71 1014.7
20260905152127 87 0 0.9 3.5 0.00 0.00 0.00 71 1014.8
20260905151626 87 329 0.9 3.5 0.00 0.00 0.00 73 1015.0
20260905151419 86 327 0.9 2.6 0.00 0.00 0.00 73 1014.9
20260905150623 86 245 0.9 2.6 0.00 0.00 0.00 73 1014.9
20260905150122 86 297 0.9 2.6 0.00 0.00 0.00 74 1014.9
20260905145623 85 284 0.9 2.6 0.00 0.00 0.00 75 1014.9
20260905145413 85 342 0.9 3.5 0.00 0.00 0.00 76 1014.9
20260905144622 85 0 0.9 3.5 0.00 0.00 0.00 76 1014.8
20260905144123 84 56 0.9 3.5 0.00 0.00 0.00 77 1014.8
20260905143624 84 186 0.9 3.5 0.00 0.00 0.00 78 1014.8
20260905143122 83 221 0.9 3.5 0.00 0.00 0.00 78 1014.9
20260905142624 83 22 0.9 1.7 0.00 0.00 0.00 79 1014.9
20260905142120 83 175 0.9 1.7 0.00 0.00 0.00 79 1014.9
20260905141619 82 233 0.9 3.5 0.00 0.00 0.00 79 1015.0
20260905141119 82 348 0.9 3.5 0.00 0.00 0.00 81 1015.0
20260905140620 82 19 0.9 2.6 0.00 0.00 0.00 81 1015.1
20260905140120 81 217 0.9 2.6 0.00 0.00 0.00 82 1015.0
20260905135619 81 191 0.9 3.5 0.00 0.00 0.00 83 1015.0
20260905135119 80 194 0.9 3.5 0.00 0.00 0.00 84 1015.0
20260905134619 80 34 0.9 1.7 0.00 0.00 0.00 85 1015.0
20260905134119 80 260 0.9 2.6 0.00 0.00 0.00 85 1015.1
20260905133908 79 183 0.9 2.6 0.00 0.00 0.00 86 1015.0
20260905133112 79 26 0.9 1.7 0.00 0.00 0.00 87 1015.1
20260905132907 78 223 0.9 1.7 0.00 0.00 0.00 88 1015.1
20260905132112 78 325 0.9 2.6 0.00 0.00 0.00 89 1014.9
20260905131609 78 350 0.9 3.5 0.00 0.00 0.00 89 1015.0
20260905131108 77 265 0.0 3.5 0.00 0.00 0.00 90 1015.0
20260905130608 77 296 0.0 2.6 0.00 0.00 0.00 91 1015.0
20260905130108 77 250 0.0 2.6 0.00 0.00 0.00 92 1015.0
20260905125901 76 261 0.0 1.7 0.00 0.00 0.00 93 1015.2
20260905125106 76 198 0.0 1.7 0.00 0.00 0.00 93 1015.3
20260905124608 76 302 0.0 1.7 0.00 0.00 0.00 93 1015.3
20260905124403 76 275 0.0 0.9 0.00 0.00 0.00 93 1015.2
20260905123607 76 235 0.0 0.9 0.00 0.00 0.00 93 1015.2
20260905123108 75 179 0.0 1.7 0.00 0.00 0.00 93 1015.2
20260905122608 75 156 0.0 1.7 0.00 0.00 0.00 93 1015.2
20260905122359 75 26 0.0 1.7 0.00 0.00 0.00 93 1015.2
20260905121606 75 26 0.0 1.7 0.00 0.00 0.00 93 1015.2
20260905121103 74 26 0.0 0.9 0.00 0.00 0.00 92 1015.3
20260905120603 74 26 0.0 0.9 0.00 0.00 0.00 92 1015.3
20260905120153 74 26 0.0 0.0 0.00 0.00 0.00 91 1015.2
20260905120136 74 26 0.0 0.9 0.00 0.00 0.00 92 1015.3
20260905115047 74 26 0.0 0.0 0.00 0.00 0.00 91 1015.1
20260905114633 74 26 0.0 0.9 0.00 0.00 0.00 91 1014.9
20260905114616 74 26 0.0 0.9 0.00 0.00 0.00 91 1014.9
20260905113540 74 26 0.0 0.9 0.00 0.00 0.00 91 1014.9
20260905113036 74 26 0.0 0.9 0.00 0.00 0.00 90 1014.8
20260905112535 74 26 0.0 0.9 0.00 0.00 0.00 90 1014.7
20260905112331 74 26 0.0 0.0 0.00 0.00 0.00 90 1014.7
20260905111530 74 26 0.0 0.0 0.00 0.00 0.00 90 1014.5
20260905111032 74 26 0.0 0.9 0.00 0.00 0.00 90 1014.4
20260905110535 74 26 0.0 0.9 0.00 0.00 0.00 90 1014.3
20260905110314 74 26 0.0 0.0 0.00 0.00 0.00 90 1014.2
20260905105529 74 26 0.0 0.0 0.00 0.00 0.00 89 1014.2
20260905105030 74 26 0.0 0.0 0.00 0.00 0.00 89 1014.2
20260905104530 75 26 0.0 0.9 0.00 0.00 0.00 89 1013.9
20260905104030 75 26 0.0 0.9 0.00 0.00 0.00 89 1013.9
20260905103919 75 26 0.0 0.9 0.00 0.00 0.00 89 1013.8
20260905103031 75 26 0.0 0.9 0.00 0.00 0.00 89 1013.7
20260905102925 75 26 0.0 0.9 0.00 0.00 0.00 89 1013.7
20260905102030 75 26 0.0 0.9 0.00 0.00 0.00 88 1013.7
20260905101532 75 26 0.0 0.9 0.00 0.00 0.00 88 1013.8
20260905101037 75 26 0.0 0.9 0.00 0.00 0.00 88 1013.7
20260905100527 75 26 0.0 0.9 0.00 0.00 0.00 88 1013.7
20260905100023 75 26 0.0 0.9 0.00 0.00 0.00 88 1013.6
20260905095520 76 26 0.0 0.0 0.00 0.00 0.00 88 1013.7
20260905095011 76 26 0.0 0.9 0.00 0.00 0.00 87 1013.7
20260905094733 76 26 0.0 0.9 0.00 0.00 0.00 87 1013.8
20260905094009 76 26 0.0 0.0 0.00 0.00 0.00 87 1013.8
20260905093510 76 26 0.0 0.0 0.00 0.00 0.00 87 1013.8